Location: PSU-Greenbush Astrophysical Observatory
(37.5140°N, 94.9880°W)
Time: 19:15:14
(UTC-06:00)

deb Explorer IX - Pass Details

Date: 26 January 2020
Orbit: 549 x 1099 km, 38.8° (Epoch: 25 February)

Event Time Altitude Azimuth Distance (km) Brightness Sun altitude
Rises 19:44:36 0° 211° (SSW) 3,492 ? -25.3°
Reaches altitude 10° 19:47:24 10° 200° (SSW) 2,641 ? -25.8°
Enters shadow 19:51:53 28° 157° (SSE) 1,786 ? -26.7°
Maximum altitude 19:52:48 29° 143° (SE) 1,770 - -26.9°
Drops below altitude 10° 19:58:42 10° 87° (E) 2,898 - -28.1°
Sets 20:01:53 0° 77° (ENE) 3,891 - -28.7°
